Chippewa, MI

3:48 PM EST on December 06, 2019 (GMT -0500)
Chippewa County International

Weather History for KCIU - October, 2019

Change the Weather History Date:

Tuesday, October 29, 2019

  Actual Average Record
Temperature  
Mean Temperature 36 °F -  
Max Temperature 41 °F 48 °F 63 °F (1989)
Min Temperature 30 °F 29 °F 15 °F (1978)
Degree Days  
Heating Degree Days 28    
Moisture  
Dew Point 36 °F    
Average Humidity 93    
Maximum Humidity 100    
Minimum Humidity 65    
Precipitation  
Precipitation 0.34 in - - ()
Sea Level Pressure  
Sea Level Pressure 30.08 in    
Wind  
Wind Speed 5 mph ()    
Max Wind Speed 13 mph    
Max Gust Speed 20 mph    
Visibility 7.8 miles    
Events Rain    
Averages and records for this station are not official NWS values.
T = Trace of Precipitation, MM = Missing Value Source: Averaged Metar Reports

Daily Weather History Graph

Daily Weather History Graph

Search for Another Location

Airport or City:

Astronomy

Oct. 29, 2019 Rise Set
Actual Time 8:14 AM EDT 6:28 PM EDT
Civil Twilight 7:43 AM EDT 6:59 PM EDT
Nautical Twilight 7:07 AM EDT 7:34 PM EDT
Astronomical Twilight 6:33 AM EDT 8:09 PM EDT
Moon 9:50 AM EDT (10/29) 7:47 PM EDT (10/29)
Length of Visible Light 11h 16m
Length of Day
10h 13m
Waxing Crescent, 3% of the Moon is Illuminated
Oct 29
Waxing Crescent
Nov 4
First Quarter
Nov 12
Full
Nov 19
Last Quarter
Nov 26
New

Hourly Weather History & Observations

Time (EDT) Temp. Windchill Dew Point Humidity Pressure Visibility Wind Dir Wind Speed Gust Speed Precip Events Conditions
12:56 AM 39.9 °F 37.8 °F 39.0 °F 97% 30.04 in 6.0 mi NE 3.5 mph - 0.00 in Rain Light Rain
1:14 AM 39.2 °F 37.0 °F 39.2 °F 100% 30.01 in 5.0 mi NE 3.5 mph - 0.00 in Rain Light Rain
1:21 AM 39.2 °F 37.0 °F 39.2 °F 100% 30.01 in 5.0 mi NE 3.5 mph - 0.00 in Rain Light Rain
1:31 AM 39.2 °F 37.0 °F 39.2 °F 100% 30.01 in 5.0 mi ENE 3.5 mph - 0.00 in Rain Light Rain
1:40 AM 39.2 °F 37.0 °F 39.2 °F 100% 30.00 in 5.0 mi ENE 3.5 mph - 0.00 in Rain Light Rain
1:48 AM 39.2 °F 37.0 °F 37.4 °F 93% 30.00 in 6.0 mi NE 3.5 mph - 0.00 in Rain Light Rain
1:56 AM 39.0 °F 36.8 °F 39.0 °F 100% 30.02 in 5.0 mi NNE 3.5 mph - 0.00 in Rain Light Rain
2:45 AM 39.2 °F 37.0 °F 39.2 °F 100% 29.99 in 4.0 mi North 3.5 mph - 0.01 in Rain Light Rain
2:56 AM 39.0 °F 35.7 °F 39.0 °F 100% 30.01 in 3.0 mi NNW 4.6 mph - 0.01 in Rain Light Rain
3:18 AM 39.2 °F 35.9 °F 39.2 °F 100% 29.99 in 4.0 mi NW 4.6 mph - 0.00 in Rain Light Rain
3:39 AM 39.2 °F 35.0 °F 39.2 °F 100% 29.98 in 2.5 mi NNW 5.8 mph - 0.01 in Rain Light Rain
3:56 AM 39.0 °F 34.0 °F 39.0 °F 100% 30.00 in 3.0 mi NNW 6.9 mph - 0.03 in Rain Light Rain
4:51 AM 39.2 °F 33.0 °F 37.4 °F 93% 29.99 in 6.0 mi North 9.2 mph - 0.07 in Rain Rain
4:56 AM 37.9 °F 32.7 °F 37.0 °F 97% 30.02 in 6.0 mi NNW 6.9 mph - 0.08 in Rain Rain
5:23 AM 37.4 °F 31.4 °F 35.6 °F 93% 30.00 in 8.0 mi North 8.1 mph - 0.08 in Rain Rain
5:36 AM 35.6 °F 29.9 °F 35.6 °F 100% 30.00 in 9.0 mi NNW 6.9 mph - 0.12 in Rain Rain
5:48 AM 35.6 °F 29.2 °F 33.8 °F 93% 30.01 in 9.0 mi NNW 8.1 mph - 0.15 in Rain Rain
5:56 AM 35.1 °F 27.4 °F 34.0 °F 96% 30.03 in 8.0 mi NNW 10.4 mph - 0.16 in   Overcast
6:56 AM 35.1 °F 32.2 °F 34.0 °F 96% 30.02 in 10.0 mi NNW 3.5 mph - 0.04 in Rain Light Rain
7:14 AM 35.6 °F 31.7 °F 35.6 °F 100% 30.00 in 10.0 mi NNW 4.6 mph - 0.00 in Rain Light Rain
7:43 AM 35.6 °F 32.8 °F 33.8 °F 93% 30.00 in 10.0 mi NW 3.5 mph - 0.01 in Rain Light Rain
7:46 AM 35.6 °F 31.7 °F 33.8 °F 93% 30.00 in 10.0 mi NW 4.6 mph - 0.01 in Rain Light Rain
7:56 AM 35.1 °F 31.0 °F 34.0 °F 96% 30.02 in 10.0 mi WNW 4.6 mph - 0.01 in Rain Light Rain
8:25 AM 35.6 °F 29.9 °F 35.6 °F 100% 30.02 in 10.0 mi NW 6.9 mph - 0.00 in   Overcast
8:56 AM 35.1 °F 29.3 °F 35.1 °F 100% 30.05 in 9.0 mi WNW 6.9 mph - 0.00 in   Overcast
9:33 AM 35.6 °F 29.9 °F 35.6 °F 100% 30.04 in 8.0 mi NW 6.9 mph - 0.00 in   Overcast
9:49 AM 35.6 °F 29.9 °F 35.6 °F 100% 30.06 in 1.8 mi West 6.9 mph - 0.00 in   Overcast
9:56 AM 36.0 °F 30.3 °F 36.0 °F 100% 30.08 in 2.5 mi WNW 6.9 mph - 0.00 in   Overcast
10:01 AM 35.6 °F 29.2 °F 35.6 °F 100% 30.06 in 4.0 mi WNW 8.1 mph - 0.00 in   Overcast
10:13 AM 35.6 °F 29.9 °F 35.6 °F 100% 30.06 in 2.5 mi WNW 6.9 mph - 0.00 in   Overcast
10:24 AM 35.6 °F 27.5 °F 35.6 °F 100% 30.06 in 4.0 mi NW 11.5 mph - 0.00 in   Overcast
10:56 AM 37.0 °F 31.6 °F 36.0 °F 96% 30.07 in 10.0 mi NW 6.9 mph - 0.00 in   Overcast
11:44 AM 39.2 °F 31.6 °F 35.6 °F 87% 30.05 in 10.0 mi NW 12.7 mph - 0.00 in   Overcast
11:56 AM 39.0 °F 31.8 °F 35.1 °F 86% 30.09 in 10.0 mi NNW 11.5 mph 19.6 mph 0.00 in   Overcast
12:25 PM 39.2 °F 32.0 °F 35.6 °F 87% 30.08 in 10.0 mi North 11.5 mph - 0.00 in   Mostly Cloudy
12:46 PM 37.4 °F 30.8 °F 35.6 °F 93% 30.10 in 10.0 mi NNW 9.2 mph - 0.00 in Rain Light Rain
12:56 PM 39.0 °F 31.8 °F 35.1 °F 86% 30.12 in 10.0 mi North 11.5 mph - 0.00 in   Overcast
1:29 PM 39.2 °F 32.0 °F 33.8 °F 81% 30.10 in 10.0 mi NNW 11.5 mph - N/A   Overcast
1:53 PM 41.0 °F 36.4 °F 35.6 °F 81% 30.09 in 10.0 mi NNW 6.9 mph - N/A   Overcast
1:56 PM 41.0 °F 34.7 °F 36.0 °F 82% 30.12 in 10.0 mi NNW 10.4 mph - N/A   Overcast
2:36 PM 39.2 °F 33.6 °F 37.4 °F 93% 30.12 in 10.0 mi North 8.1 mph - 0.00 in Rain Light Rain
2:56 PM 39.0 °F 33.4 °F 36.0 °F 89% 30.14 in 10.0 mi NNW 8.1 mph - 0.00 in   Overcast
3:39 PM 41.0 °F 35.2 °F 33.8 °F 76% 30.13 in 10.0 mi NW 9.2 mph - N/A   Overcast
3:56 PM 41.0 °F 35.2 °F 32.0 °F 70% 30.16 in 10.0 mi NW 9.2 mph - N/A   Overcast
4:04 PM 41.0 °F 35.8 °F 30.2 °F 65% 30.14 in 10.0 mi NNW 8.1 mph - N/A   Overcast
4:56 PM 39.9 °F 33.4 °F 33.1 °F 77% 30.17 in 10.0 mi West 10.4 mph - N/A   Overcast
5:56 PM 39.9 °F 32.5 °F 33.1 °F 77% 30.17 in 10.0 mi NW 12.7 mph 18.4 mph N/A   Overcast
6:15 PM 35.6 °F 29.9 °F 33.8 °F 93% 30.17 in 5.0 mi North 6.9 mph - 0.01 in Rain Light Rain
6:41 PM 35.6 °F 32.8 °F 33.8 °F 93% 30.18 in 10.0 mi NW 3.5 mph - 0.01 in   Overcast
6:56 PM 35.1 °F - 34.0 °F 96% 30.21 in 10.0 mi Calm Calm - 0.01 in   Overcast
7:56 PM 35.1 °F 31.0 °F 34.0 °F 96% 30.23 in 10.0 mi SW 4.6 mph - N/A   Overcast
8:56 PM 34.0 °F 31.0 °F 33.1 °F 96% 30.24 in 10.0 mi WSW 3.5 mph - N/A   Overcast
9:56 PM 32.0 °F - 30.9 °F 96% 30.25 in 10.0 mi Calm Calm - N/A   Scattered Clouds
10:56 PM 32.0 °F 27.5 °F 32.0 °F 100% 30.27 in 10.0 mi SW 4.6 mph - N/A   Clear
11:56 PM 30.9 °F 26.2 °F 30.9 °F 100% 30.27 in 10.0 mi SW 4.6 mph - N/A   Clear